User: anonymous   Login
Location: Hopkins Observatory
(42.6965°N, 73.1843°W)
Time: 07:02:21
(UTC-04:00)
Language:

RS-15 - Orbit

View from above orbital plane
View from above orbital plane
View from above satellite
View from above satellite

Ground track
Ground track

The orbit data is extracted from the following two-line orbital elements,

1 23439U 94085A   18144.92787080 -.00000037 +00000-0 +14848-3 0  9995
2 23439 064.8192 026.4509 0157894 186.2843 292.2671 11.27566769963945
Epoch (UTC): 24 May 2018 22:16:08
Eccentricity: 0.0157894
inclination: 64.8192°
perigee height: 1890 km
apogee height: 2155 km
right ascension of ascending node: 26.4509°
argument of perigee: 186.2843°
revolutions per day: 11.27566769
mean anomaly at epoch: 292.2671°
orbit number at epoch: 96394

The dashed part of the orbit path shows where the satellite is in the earth's shadow,  

DLR